Time,TemperatureF,DewpointF,PressureIn,WindDirection,WindDirectionDegrees,WindSpeedMPH,WindSpeedGustMPH,Humidity,HourlyPrecipIn,Conditions,Clouds,dailyrainin,SolarRadiationWatts/m^2,SoftwareType,DateUTC
2013-09-10 00:02:00,61.1,56.0,30.11,SSE,159,0.0,2.0,82,0.00,,,0.00,0,weatherlink.com 1.10,2013-09-10 04:02:00,
2013-09-10 00:17:00,60.7,55.0,30.11,South,173,0.0,3.0,82,0.00,,,0.00,0,weatherlink.com 1.10,2013-09-10 04:17:00,
2013-09-10 00:32:00,60.2,55.0,30.11,South,173,0.0,1.0,84,0.00,,,0.00,0,weatherlink.com 1.10,2013-09-10 04:32:00,
2013-09-10 00:47:00,60.7,56.0,30.11,South,174,0.0,2.0,84,0.00,,,0.00,0,weatherlink.com 1.10,2013-09-10 04:47:00,
2013-09-10 01:02:00,61.2,56.0,30.12,West,261,0.0,2.0,83,0.00,,,0.00,0,weatherlink.com 1.10,2013-09-10 05:02:00,
2013-09-10 01:17:00,61.0,56.0,30.11,NE,37,1.0,2.0,84,0.00,,,0.00,0,weatherlink.com 1.10,2013-09-10 05:17:00,
2013-09-10 01:32:00,61.4,57.0,30.11,NW,320,1.0,3.0,84,0.00,,,0.00,0,weatherlink.com 1.10,2013-09-10 05:32:00,
2013-09-10 01:47:00,61.7,57.0,30.11,West,263,0.0,3.0,84,0.00,,,0.00,0,weatherlink.com 1.10,2013-09-10 05:47:00,
2013-09-10 02:02:00,62.3,57.0,30.11,NNW,348,0.0,3.0,83,0.00,,,0.00,0,weatherlink.com 1.10,2013-09-10 06:02:00,
2013-09-10 02:17:00,62.5,57.0,30.10,WSW,238,1.0,5.0,83,0.00,,,0.00,0,weatherlink.com 1.10,2013-09-10 06:17:00,
2013-09-10 02:32:00,62.6,57.0,30.10,NW,324,0.0,4.0,83,0.00,,,0.00,0,weatherlink.com 1.10,2013-09-10 06:32:00,
2013-09-10 02:47:00,62.7,58.0,30.10,North,355,0.0,3.0,83,0.00,,,0.00,0,weatherlink.com 1.10,2013-09-10 06:47:00,
2013-09-10 03:02:00,62.9,58.0,30.09,NE,34,0.0,3.0,83,0.00,,,0.00,0,weatherlink.com 1.10,2013-09-10 07:02:00,
2013-09-10 03:17:00,63.0,58.0,30.09,NW,324,1.0,3.0,83,0.00,,,0.00,0,weatherlink.com 1.10,2013-09-10 07:17:00,
2013-09-10 03:32:00,63.1,58.0,30.09,WSW,242,0.0,3.0,84,0.00,,,0.00,0,weatherlink.com 1.10,2013-09-10 07:32:00,
2013-09-10 03:47:00,63.4,59.0,30.09,NNE,23,1.0,3.0,84,0.00,,,0.00,0,weatherlink.com 1.10,2013-09-10 07:47:00,
2013-09-10 04:02:00,63.7,59.0,30.08,West,279,2.0,4.0,84,0.00,,,0.00,0,weatherlink.com 1.10,2013-09-10 08:02:00,
2013-09-10 04:17:00,63.9,59.0,30.09,SSW,196,1.0,6.0,84,0.00,,,0.00,0,weatherlink.com 1.10,2013-09-10 08:17:00,
2013-09-10 04:32:00,64.1,59.0,30.08,NNW,330,0.0,4.0,84,0.00,,,0.00,0,weatherlink.com 1.10,2013-09-10 08:32:00,
2013-09-10 04:47:00,64.1,60.0,30.08,North,355,0.0,3.0,85,0.00,,,0.00,0,weatherlink.com 1.10,2013-09-10 08:47:00,
2013-09-10 05:02:00,64.1,60.0,30.08,South,184,0.0,4.0,86,0.00,,,0.00,0,weatherlink.com 1.10,2013-09-10 09:02:00,
2013-09-10 05:17:00,63.9,60.0,30.08,NNW,330,0.0,4.0,86,0.00,,,0.00,0,weatherlink.com 1.10,2013-09-10 09:17:00,
2013-09-10 05:32:00,63.8,60.0,30.08,NNW,343,0.0,2.0,87,0.00,,,0.00,0,weatherlink.com 1.10,2013-09-10 09:32:00,
2013-09-10 05:47:00,63.7,60.0,30.08,NW,310,0.0,1.0,88,0.00,,,0.00,0,weatherlink.com 1.10,2013-09-10 09:47:00,
2013-09-10 06:02:00,63.9,60.0,30.09,SSW,211,1.0,3.0,88,0.00,,,0.00,0,weatherlink.com 1.10,2013-09-10 10:02:00,
2013-09-10 06:17:00,63.9,60.0,30.08,North,355,0.0,2.0,88,0.00,,,0.00,0,weatherlink.com 1.10,2013-09-10 10:17:00,
2013-09-10 06:32:00,64.1,61.0,30.09,North,350,0.0,5.0,89,0.00,,,0.00,0,weatherlink.com 1.10,2013-09-10 10:32:00,
2013-09-10 06:47:00,64.4,61.0,30.09,West,274,0.0,3.0,89,0.00,,,0.00,7,weatherlink.com 1.10,2013-09-10 10:47:00,
2013-09-10 07:02:00,64.8,62.0,30.09,SSE,152,3.0,3.0,90,0.00,,,0.00,7,weatherlink.com 1.10,2013-09-10 11:02:00,
2013-09-10 07:17:00,64.9,62.0,30.09,NNW,347,2.0,4.0,90,0.00,,,0.00,23,weatherlink.com 1.10,2013-09-10 11:17:00,
2013-09-10 07:32:00,65.1,62.0,30.08,NNW,339,3.0,5.0,90,0.00,,,0.00,25,weatherlink.com 1.10,2013-09-10 11:32:00,
2013-09-10 07:47:00,65.2,63.0,30.08,NNW,346,1.0,3.0,91,0.00,,,0.00,35,weatherlink.com 1.10,2013-09-10 11:47:00,
2013-09-10 08:02:00,65.2,63.0,30.08,WNW,291,2.0,5.0,92,0.00,,,0.00,53,weatherlink.com 1.10,2013-09-10 12:02:00,
2013-09-10 08:17:00,65.2,63.0,30.09,WSW,242,0.0,4.0,93,0.00,,,0.00,60,weatherlink.com 1.10,2013-09-10 12:17:00,
2013-09-10 08:32:00,65.3,63.0,30.09,SW,233,0.0,3.0,93,0.00,,,0.00,40,weatherlink.com 1.10,2013-09-10 12:32:00,
2013-09-10 08:47:00,65.4,63.0,30.08,WNW,302,0.0,5.0,93,0.00,,,0.00,47,weatherlink.com 1.10,2013-09-10 12:47:00,
2013-09-10 09:02:00,65.7,64.0,30.09,WSW,252,0.0,3.0,93,0.00,,,0.00,60,weatherlink.com 1.10,2013-09-10 13:02:00,
2013-09-10 09:17:00,66.0,64.0,30.10,NW,315,0.0,2.0,93,0.00,,,0.00,18,weatherlink.com 1.10,2013-09-10 13:17:00,
2013-09-10 09:32:00,65.9,64.0,30.10,NNW,336,0.0,4.0,93,0.00,,,0.00,21,weatherlink.com 1.10,2013-09-10 13:32:00,
2013-09-10 09:47:00,65.9,64.0,30.11,WNW,301,1.0,4.0,93,0.00,,,0.00,0,weatherlink.com 1.10,2013-09-10 13:47:00,
2013-09-10 10:02:00,66.1,64.0,30.12,WNW,288,0.0,3.0,93,0.01,,,0.01,18,weatherlink.com 1.10,2013-09-10 14:02:00,
2013-09-10 10:17:00,65.7,64.0,30.11,North,11,0.0,3.0,94,0.02,,,0.02,14,weatherlink.com 1.10,2013-09-10 14:17:00,
2013-09-10 10:32:00,65.5,64.0,30.10,South,173,1.0,5.0,95,0.03,,,0.03,14,weatherlink.com 1.10,2013-09-10 14:32:00,
2013-09-10 10:47:00,65.5,64.0,30.09,NW,319,0.0,2.0,96,0.03,,,0.03,14,weatherlink.com 1.10,2013-09-10 14:47:00,
2013-09-10 11:02:00,65.5,64.0,30.08,North,355,0.0,4.0,96,0.04,,,0.05,19,weatherlink.com 1.10,2013-09-10 15:02:00,
2013-09-10 11:18:00,65.7,65.0,30.05,North,355,1.0,3.0,96,0.04,,,0.06,19,weatherlink.com 1.10,2013-09-10 15:18:00,
2013-09-10 11:33:00,66.0,65.0,30.02,North,355,3.0,4.0,97,0.04,,,0.07,47,weatherlink.com 1.10,2013-09-10 15:33:00,
2013-09-10 11:48:00,66.4,66.0,30.01,West,259,2.0,4.0,97,0.03,,,0.07,54,weatherlink.com 1.10,2013-09-10 15:48:00,
2013-09-10 12:03:00,66.9,66.0,30.05,NNW,342,2.0,5.0,97,0.02,,,0.07,51,weatherlink.com 1.10,2013-09-10 16:03:00,
2013-09-10 12:18:00,67.2,66.0,30.03,NW,319,0.0,4.0,97,0.01,,,0.07,84,weatherlink.com 1.10,2013-09-10 16:18:00,
2013-09-10 12:33:00,67.5,67.0,30.03,NNE,15,0.0,3.0,97,0.00,,,0.07,62,weatherlink.com 1.10,2013-09-10 16:33:00,
2013-09-10 12:48:00,67.9,67.0,30.03,SE,143,1.0,3.0,97,0.00,,,0.07,84,weatherlink.com 1.10,2013-09-10 16:48:00,
2013-09-10 13:03:00,68.5,67.0,30.03,NNW,329,1.0,6.0,96,0.00,,,0.07,146,weatherlink.com 1.10,2013-09-10 17:03:00,
2013-09-10 13:18:00,69.4,68.0,30.03,WNW,303,0.0,5.0,96,0.00,,,0.07,216,weatherlink.com 1.10,2013-09-10 17:18:00,
2013-09-10 13:33:00,70.4,69.0,30.03,NNW,331,1.0,5.0,94,0.00,,,0.07,213,weatherlink.com 1.10,2013-09-10 17:33:00,
2013-09-10 13:48:00,71.1,69.0,30.03,NW,324,1.0,4.0,93,0.00,,,0.07,258,weatherlink.com 1.10,2013-09-10 17:48:00,
2013-09-10 14:04:00,72.2,70.0,30.03,NNW,330,0.0,5.0,91,0.00,,,0.07,281,weatherlink.com 1.10,2013-09-10 18:04:00,
2013-09-10 14:18:00,73.7,71.0,30.02,NNW,327,1.0,2.0,90,0.00,,,0.07,606,weatherlink.com 1.10,2013-09-10 18:18:00,
2013-09-10 14:33:00,75.2,71.0,30.02,WSW,246,0.0,4.0,86,0.00,,,0.07,563,weatherlink.com 1.10,2013-09-10 18:33:00,
2013-09-10 14:48:00,76.3,72.0,30.02,North,355,0.0,2.0,85,0.00,,,0.07,371,weatherlink.com 1.10,2013-09-10 18:48:00,
2013-09-10 15:03:00,76.6,71.0,30.02,NNW,333,1.0,4.0,83,0.00,,,0.07,364,weatherlink.com 1.10,2013-09-10 19:03:00,
2013-09-10 15:18:00,76.8,72.0,30.02,SW,223,1.0,3.0,85,0.00,,,0.07,294,weatherlink.com 1.10,2013-09-10 19:18:00,
2013-09-10 15:33:00,78.7,73.0,30.02,North,5,0.0,4.0,83,0.00,,,0.07,548,weatherlink.com 1.10,2013-09-10 19:33:00,
2013-09-10 15:48:00,78.3,72.0,30.01,North,9,1.0,5.0,81,0.00,,,0.07,258,weatherlink.com 1.10,2013-09-10 19:48:00,
2013-09-10 16:03:00,78.1,73.0,30.01,North,355,1.0,6.0,83,0.00,,,0.07,163,weatherlink.com 1.10,2013-09-10 20:03:00,
2013-09-10 16:18:00,77.4,73.0,30.01,WNW,302,0.0,4.0,85,0.00,,,0.07,264,weatherlink.com 1.10,2013-09-10 20:18:00,
2013-09-10 16:33:00,79.7,74.0,30.00,NW,325,1.0,2.0,83,0.00,,,0.07,438,weatherlink.com 1.10,2013-09-10 20:33:00,
2013-09-10 16:48:00,79.7,73.0,30.00,NW,325,0.0,5.0,81,0.00,,,0.07,366,weatherlink.com 1.10,2013-09-10 20:48:00,
2013-09-10 17:03:00,80.1,74.0,30.00,NNW,346,1.0,3.0,82,0.00,,,0.07,343,weatherlink.com 1.10,2013-09-10 21:03:00,
2013-09-10 17:18:00,80.1,74.0,30.00,NW,309,0.0,3.0,82,0.00,,,0.07,288,weatherlink.com 1.10,2013-09-10 21:18:00,
2013-09-10 17:33:00,79.9,74.0,30.00,NW,321,0.0,4.0,82,0.00,,,0.07,118,weatherlink.com 1.10,2013-09-10 21:33:00,
2013-09-10 17:48:00,79.2,74.0,30.00,WNW,298,2.0,3.0,83,0.00,,,0.07,98,weatherlink.com 1.10,2013-09-10 21:48:00,
2013-09-10 18:03:00,78.6,74.0,30.00,NNW,344,0.0,3.0,85,0.00,,,0.07,76,weatherlink.com 1.10,2013-09-10 22:03:00,
2013-09-10 18:18:00,77.8,74.0,30.00,NNW,344,0.0,2.0,87,0.00,,,0.07,54,weatherlink.com 1.10,2013-09-10 22:18:00,
2013-09-10 18:33:00,77.3,74.0,30.00,NW,317,0.0,4.0,88,0.00,,,0.07,35,weatherlink.com 1.10,2013-09-10 22:33:00,
2013-09-10 18:48:00,76.6,73.0,30.00,NW,317,0.0,1.0,89,0.00,,,0.07,18,weatherlink.com 1.10,2013-09-10 22:48:00,
2013-09-10 19:03:00,75.5,73.0,30.01,NW,317,0.0,1.0,91,0.00,,,0.07,7,weatherlink.com 1.10,2013-09-10 23:03:00,
2013-09-10 19:18:00,74.8,72.0,30.01,NW,317,0.0,0.0,92,0.00,,,0.07,0,weatherlink.com 1.10,2013-09-10 23:18:00,
2013-09-10 19:34:00,74.3,72.0,30.01,NW,317,0.0,0.0,93,0.00,,,0.07,0,weatherlink.com 1.10,2013-09-10 23:34:00,
2013-09-10 19:49:00,74.1,72.0,30.02,NW,317,0.0,1.0,94,0.00,,,0.07,0,weatherlink.com 1.10,2013-09-10 23:49:00,
2013-09-10 20:04:00,73.8,72.0,30.02,NW,317,0.0,1.0,94,0.00,,,0.07,0,weatherlink.com 1.10,2013-09-11 00:04:00,
2013-09-10 20:19:00,73.6,72.0,30.02,NW,317,0.0,0.0,95,0.00,,,0.07,0,weatherlink.com 1.10,2013-09-11 00:19:00,
2013-09-10 20:34:00,73.6,72.0,30.02,NW,317,0.0,1.0,95,0.00,,,0.07,0,weatherlink.com 1.10,2013-09-11 00:34:00,
2013-09-10 20:49:00,73.3,72.0,30.03,NW,317,1.0,1.0,95,0.00,,,0.07,0,weatherlink.com 1.10,2013-09-11 00:49:00,
2013-09-10 21:04:00,73.6,72.0,30.03,NW,317,0.0,1.0,95,0.00,,,0.07,0,weatherlink.com 1.10,2013-09-11 01:04:00,
2013-09-10 21:19:00,74.3,73.0,30.03,NW,304,0.0,1.0,94,0.00,,,0.07,0,weatherlink.com 1.10,2013-09-11 01:19:00,
2013-09-10 21:34:00,74.3,73.0,30.03,WNW,301,0.0,1.0,94,0.00,,,0.07,0,weatherlink.com 1.10,2013-09-11 01:34:00,
2013-09-10 21:49:00,74.3,72.0,30.03,NNW,348,0.0,2.0,93,0.00,,,0.07,0,weatherlink.com 1.10,2013-09-11 01:49:00,
2013-09-10 22:04:00,74.8,73.0,30.04,North,5,0.0,2.0,93,0.00,,,0.07,0,weatherlink.com 1.10,2013-09-11 02:04:00,
2013-09-10 22:19:00,74.7,72.0,30.04,SW,223,0.0,1.0,92,0.00,,,0.07,0,weatherlink.com 1.10,2013-09-11 02:19:00,
2013-09-10 22:34:00,75.1,73.0,30.04,NNW,331,0.0,3.0,92,0.00,,,0.07,0,weatherlink.com 1.10,2013-09-11 02:34:00,
2013-09-10 22:49:00,74.9,73.0,30.04,North,351,1.0,5.0,92,0.00,,,0.07,0,weatherlink.com 1.10,2013-09-11 02:49:00,
2013-09-10 23:04:00,74.5,72.0,30.04,NNW,342,0.0,1.0,92,0.00,,,0.07,0,weatherlink.com 1.10,2013-09-11 03:04:00,
2013-09-10 23:19:00,74.4,72.0,30.04,NNW,342,0.0,2.0,93,0.00,,,0.07,0,weatherlink.com 1.10,2013-09-11 03:19:00,
2013-09-10 23:34:00,74.3,72.0,30.04,West,280,0.0,2.0,93,0.00,,,0.07,0,weatherlink.com 1.10,2013-09-11 03:34:00,
2013-09-10 23:49:00,74.0,72.0,30.04,SSW,199,0.0,2.0,93,0.00,,,0.07,0,weatherlink.com 1.10,2013-09-11 03:49:00,